User: anonymous   Login
Location: ??
(35.5052°N, 139.7262°E)
Time: 02:17:06
(UTC+00:00)
Language:

GEOS 3 Rocket - Orbit

View from above orbital plane
View from above orbital plane
View from above satellite
View from above satellite

Ground track
Ground track

The orbit data is extracted from the following two-line orbital elements,

1  7735U 75027B   21259.47138857 -.00000133  00000-0  19483-4 0  9992
2  7735 114.9729 168.3988 0036600 185.7951 174.2710 14.24648962411342
Epoch (UTC): 16 September 2021 11:18:47
Eccentricity: 0.0036600
inclination: 114.9729°
perigee height: 783 km
apogee height: 836 km
right ascension of ascending node: 168.3988°
argument of perigee: 185.7951°
revolutions per day: 14.24648962
mean anomaly at epoch: 174.2710°
orbit number at epoch: 41134

The dashed part of the orbit path shows where the satellite is in the earth's shadow,  

DLR